DLH94Y EDDF-EDDM

Flight info

Callsign DLH94Y
Flight time 0h 33m
Altitude 23000
Route CINDY8S/18 CINDY Z74 HAREM T104 ROKIL ROKIL1B
Aircraft A319/M-SDE3FGHIRWY/LB1

Departure

Time 2026-05-07 13:55
Airport Frankfurt Main Airport (EDDF)

Arrival

Time 2026-05-07 14:29
Airport Munich Airport (EDDM)
Time Latitude Longitude Altitude Speed Heading
2026-05-07 13:31 50.04453 8.56431 356 ft 0 kts 155°
2026-05-07 13:44 50.04471 8.56417 360 ft 4 kts 155°
2026-05-07 13:44 50.04496 8.56401 359 ft 4 kts 166°
2026-05-07 13:44 50.04518 8.56399 356 ft 4 kts 226°
2026-05-07 13:44 50.04520 8.56399 356 ft 4 kts 250°
2026-05-07 13:45 50.04514 8.56372 356 ft 0 kts 250°
2026-05-07 13:47 50.04508 8.56347 362 ft 5 kts 250°
2026-05-07 13:48 50.04493 8.56280 357 ft 7 kts 251°
2026-05-07 13:48 50.04476 8.56203 361 ft 8 kts 248°
2026-05-07 13:48 50.04452 8.56112 362 ft 10 kts 250°
2026-05-07 13:48 50.04425 8.55996 360 ft 12 kts 251°
2026-05-07 13:49 50.04364 8.55923 356 ft 12 kts 179°
2026-05-07 13:49 50.04276 8.55960 357 ft 14 kts 176°
2026-05-07 13:49 50.04219 8.55850 357 ft 15 kts 252°
2026-05-07 13:49 50.04182 8.55695 359 ft 16 kts 249°
2026-05-07 13:50 50.04142 8.55529 353 ft 17 kts 249°
2026-05-07 13:50 50.04098 8.55351 354 ft 18 kts 249°
2026-05-07 13:50 50.04057 8.55177 355 ft 17 kts 250°
2026-05-07 13:50 50.04015 8.55003 356 ft 18 kts 249°
2026-05-07 13:51 50.03966 8.54795 357 ft 23 kts 250°
2026-05-07 13:51 50.03904 8.54537 355 ft 27 kts 250°
2026-05-07 13:51 50.03818 8.54282 346 ft 27 kts 235°
2026-05-07 13:51 50.03749 8.54013 348 ft 27 kts 250°
2026-05-07 13:52 50.03684 8.53740 342 ft 27 kts 250°
2026-05-07 13:52 50.03616 8.53466 338 ft 27 kts 249°
2026-05-07 13:52 50.03551 8.53197 339 ft 27 kts 250°
2026-05-07 13:52 50.03491 8.52946 334 ft 22 kts 248°
2026-05-07 13:53 50.03443 8.52765 334 ft 11 kts 248°
2026-05-07 13:53 50.03433 8.52724 334 ft 0 kts 248°
2026-05-07 13:53 50.03429 8.52710 332 ft 4 kts 248°
2026-05-07 13:53 50.03400 8.52624 333 ft 13 kts 226°
2026-05-07 13:54 50.03315 8.52594 335 ft 10 kts 179°
2026-05-07 13:54 50.03302 8.52594 335 ft 0 kts 179°
2026-05-07 13:54 50.03296 8.52594 335 ft 4 kts 179°
2026-05-07 13:54 50.03041 8.52597 331 ft 74 kts 179°
2026-05-07 13:55 50.02308 8.52602 332 ft 135 kts 179°
2026-05-07 13:55 50.01215 8.52617 520 ft 164 kts 181°
2026-05-07 13:55 50.00098 8.52626 1216 ft 163 kts 181°
2026-05-07 13:55 49.98927 8.52631 1709 ft 178 kts 181°
2026-05-07 13:56 49.97603 8.52693 1995 ft 203 kts 173°
2026-05-07 13:56 49.96288 8.53722 2284 ft 226 kts 135°
2026-05-07 13:56 49.95413 8.55835 2904 ft 236 kts 117°
2026-05-07 13:56 49.94646 8.58107 3712 ft 238 kts 117°
2026-05-07 13:57 49.94081 8.60522 4370 ft 243 kts 98°
2026-05-07 13:57 49.93943 8.63264 4858 ft 265 kts 92°
2026-05-07 13:57 49.93808 8.66173 5667 ft 274 kts 98°
2026-05-07 13:57 49.93200 8.69008 6567 ft 280 kts 118°
2026-05-07 13:58 49.92006 8.71410 7424 ft 284 kts 138°
2026-05-07 13:58 49.90409 8.73256 8310 ft 288 kts 146°
2026-05-07 13:58 49.88844 8.75223 9185 ft 293 kts 134°
2026-05-07 13:58 49.87607 8.77752 10036 ft 298 kts 120°
2026-05-07 13:59 49.86576 8.80633 10499 ft 317 kts 119°
2026-05-07 13:59 49.85465 8.83732 10744 ft 341 kts 119°
2026-05-07 13:59 49.84269 8.87046 10969 ft 363 kts 119°
2026-05-07 13:59 49.83012 8.90509 11040 ft 372 kts 119°
2026-05-07 14:00 49.81738 8.94005 11052 ft 373 kts 119°
2026-05-07 14:00 49.80462 8.97505 11057 ft 375 kts 119°
2026-05-07 14:00 49.79169 9.01045 11696 ft 379 kts 119°
2026-05-07 14:00 49.77869 9.04605 12470 ft 382 kts 119°
2026-05-07 14:01 49.76628 9.08194 13172 ft 386 kts 114°
2026-05-07 14:01 49.75736 9.12134 13866 ft 390 kts 104°
2026-05-07 14:01 49.74994 9.16185 14478 ft 394 kts 110°
2026-05-07 14:01 49.73764 9.19988 15096 ft 398 kts 122°
2026-05-07 14:02 49.72075 9.23396 15711 ft 401 kts 132°
2026-05-07 14:02 49.70237 9.26580 16327 ft 405 kts 132°
2026-05-07 14:02 49.68367 9.29857 16950 ft 408 kts 132°
2026-05-07 14:02 49.66492 9.33170 17566 ft 412 kts 132°
2026-05-07 14:03 49.64605 9.36514 18179 ft 415 kts 132°
2026-05-07 14:03 49.62696 9.39892 18710 ft 419 kts 132°
2026-05-07 14:03 49.60773 9.43290 19228 ft 422 kts 132°
2026-05-07 14:03 49.58837 9.46703 19743 ft 424 kts 131°
2026-05-07 14:04 49.56879 9.50143 20201 ft 428 kts 132°
2026-05-07 14:04 49.54904 9.53605 20672 ft 432 kts 132°
2026-05-07 14:04 49.52910 9.57096 21131 ft 435 kts 132°
2026-05-07 14:04 49.50904 9.60605 21599 ft 438 kts 132°
2026-05-07 14:05 49.48884 9.64132 22062 ft 441 kts 132°
2026-05-07 14:05 49.46873 9.67642 22508 ft 444 kts 132°
2026-05-07 14:05 49.44802 9.71257 22964 ft 446 kts 132°
2026-05-07 14:05 49.42741 9.74848 23404 ft 449 kts 132°
2026-05-07 14:06 49.40665 9.78457 23804 ft 452 kts 132°
2026-05-07 14:06 49.38580 9.82077 24181 ft 454 kts 132°
2026-05-07 14:06 49.36480 9.85715 24556 ft 457 kts 132°
2026-05-07 14:06 49.34387 9.89336 24864 ft 460 kts 132°
2026-05-07 14:07 49.32258 9.93013 25027 ft 463 kts 132°
2026-05-07 14:07 49.30094 9.96738 25058 ft 472 kts 133°
2026-05-07 14:07 49.27898 10.00509 25053 ft 476 kts 133°
2026-05-07 14:07 49.25687 10.04300 25054 ft 478 kts 133°
2026-05-07 14:08 49.23471 10.08093 25050 ft 478 kts 133°
2026-05-07 14:08 49.21259 10.11877 25044 ft 478 kts 133°
2026-05-07 14:08 49.19042 10.15673 25054 ft 478 kts 133°
2026-05-07 14:08 49.16823 10.19468 25054 ft 478 kts 133°
2026-05-07 14:09 49.14604 10.23257 25050 ft 478 kts 133°
2026-05-07 14:09 49.12366 10.27025 25050 ft 479 kts 133°
2026-05-07 14:09 49.10090 10.30739 25062 ft 479 kts 134°
2026-05-07 14:09 49.07789 10.34414 25061 ft 479 kts 135°
2026-05-07 14:10 49.05475 10.38069 25044 ft 479 kts 135°
2026-05-07 14:10 49.03161 10.41725 25045 ft 479 kts 135°
2026-05-07 14:10 49.00853 10.45390 25051 ft 479 kts 135°
2026-05-07 14:10 48.98553 10.49059 25055 ft 479 kts 135°
2026-05-07 14:11 48.96253 10.52735 25059 ft 479 kts 134°
2026-05-07 14:11 48.93984 10.56358 25049 ft 479 kts 135°
2026-05-07 14:11 48.91650 10.60073 25053 ft 479 kts 135°
2026-05-07 14:11 48.89400 10.63642 25056 ft 469 kts 135°
2026-05-07 14:12 48.87152 10.67207 25059 ft 466 kts 135°
2026-05-07 14:12 48.84912 10.70754 25054 ft 465 kts 135°
2026-05-07 14:12 48.82670 10.74298 25045 ft 465 kts 135°
2026-05-07 14:12 48.80433 10.77828 25045 ft 465 kts 135°
2026-05-07 14:13 48.78187 10.81364 25039 ft 464 kts 135°
2026-05-07 14:13 48.75946 10.84887 25041 ft 464 kts 135°
2026-05-07 14:13 48.73703 10.88407 25031 ft 464 kts 135°
2026-05-07 14:13 48.71457 10.91922 25032 ft 464 kts 135°
2026-05-07 14:14 48.69207 10.95439 24499 ft 469 kts 135°
2026-05-07 14:14 48.66920 10.99004 23775 ft 475 kts 135°
2026-05-07 14:14 48.64604 11.02610 22969 ft 479 kts 135°
2026-05-07 14:14 48.62284 11.06211 22149 ft 476 kts 135°
2026-05-07 14:15 48.59989 11.09767 21352 ft 469 kts 135°
2026-05-07 14:15 48.57656 11.13138 20577 ft 462 kts 143°
2026-05-07 14:15 48.55043 11.15914 19823 ft 455 kts 148°
2026-05-07 14:15 48.52431 11.18571 19077 ft 451 kts 148°
2026-05-07 14:16 48.49978 11.21495 18355 ft 448 kts 140°
2026-05-07 14:16 48.47665 11.24605 17551 ft 444 kts 140°
2026-05-07 14:16 48.45376 11.27701 16752 ft 441 kts 139°
2026-05-07 14:16 48.43379 11.31174 15975 ft 441 kts 124°
2026-05-07 14:17 48.42185 11.35378 15212 ft 433 kts 104°
2026-05-07 14:17 48.41928 11.39825 14472 ft 422 kts 86°
2026-05-07 14:17 48.42250 11.44148 13747 ft 411 kts 83°
2026-05-07 14:17 48.42589 11.48364 12941 ft 400 kts 83°
2026-05-07 14:18 48.42918 11.52454 12155 ft 389 kts 83°
2026-05-07 14:18 48.43237 11.56447 11397 ft 379 kts 83°
2026-05-07 14:18 48.43544 11.60334 10652 ft 369 kts 83°
2026-05-07 14:18 48.43836 11.64091 9930 ft 361 kts 83°
2026-05-07 14:19 48.44123 11.67810 9201 ft 352 kts 83°
2026-05-07 14:19 48.44397 11.71358 8926 ft 331 kts 83°
2026-05-07 14:19 48.44655 11.74702 8660 ft 312 kts 83°
2026-05-07 14:19 48.44897 11.77874 8402 ft 301 kts 83°
2026-05-07 14:20 48.45054 11.79943 8229 ft 298 kts 83°
2026-05-07 14:20 48.45287 11.82998 7976 ft 296 kts 83°
2026-05-07 14:20 48.45522 11.86077 7638 ft 296 kts 83°
2026-05-07 14:20 48.45758 11.89144 7287 ft 293 kts 83°
2026-05-07 14:21 48.45991 11.92177 6946 ft 291 kts 83°
2026-05-07 14:21 48.46220 11.95207 6604 ft 291 kts 83°
2026-05-07 14:21 48.46448 11.98237 6249 ft 290 kts 83°
2026-05-07 14:21 48.46674 12.01246 5884 ft 288 kts 83°
2026-05-07 14:22 48.46970 12.05236 5403 ft 286 kts 83°
2026-05-07 14:22 48.47117 12.07209 5167 ft 285 kts 83°
2026-05-07 14:22 48.47182 12.10158 4985 ft 282 kts 100°
2026-05-07 14:22 48.46434 12.12866 5002 ft 281 kts 128°
2026-05-07 14:23 48.45023 12.14783 4995 ft 264 kts 155°
2026-05-07 14:23 48.43359 12.15462 4993 ft 237 kts 182°
2026-05-07 14:23 48.41792 12.15134 4997 ft 224 kts 202°
2026-05-07 14:23 48.40435 12.14048 5002 ft 219 kts 222°
2026-05-07 14:24 48.39427 12.12393 5004 ft 214 kts 241°
2026-05-07 14:24 48.38840 12.10357 5004 ft 212 kts 258°
2026-05-07 14:24 48.38632 12.08164 4867 ft 212 kts 265°
2026-05-07 14:24 48.38475 12.05971 4610 ft 208 kts 265°
2026-05-07 14:25 48.38320 12.03850 4338 ft 200 kts 266°
2026-05-07 14:25 48.38219 12.02492 4171 ft 195 kts 265°
2026-05-07 14:25 48.38022 11.99844 3831 ft 188 kts 265°
2026-05-07 14:25 48.37878 11.97913 3621 ft 183 kts 266°
2026-05-07 14:26 48.37742 11.96051 3413 ft 178 kts 266°
2026-05-07 14:26 48.37607 11.94198 3186 ft 174 kts 266°
2026-05-07 14:26 48.37475 11.92472 2941 ft 164 kts 265°
2026-05-07 14:26 48.37342 11.90844 2691 ft 146 kts 266°
2026-05-07 14:27 48.37231 11.89426 2455 ft 130 kts 268°
2026-05-07 14:27 48.37139 11.88101 2320 ft 126 kts 269°
2026-05-07 14:27 48.37044 11.86751 2145 ft 136 kts 268°
2026-05-07 14:27 48.36946 11.85313 1997 ft 141 kts 265°
2026-05-07 14:28 48.36828 11.83889 1783 ft 135 kts 266°
2026-05-07 14:28 48.36717 11.82502 1573 ft 131 kts 269°
2026-05-07 14:28 48.36620 11.81225 1486 ft 110 kts 263°
2026-05-07 14:28 48.36561 11.80450 1483 ft 54 kts 263°
2026-05-07 14:29 48.36520 11.79923 1482 ft 44 kts 261°
2026-05-07 14:29 48.36417 11.79637 1483 ft 29 kts 234°
2026-05-07 14:29 48.36315 11.79431 1481 ft 15 kts 234°
2026-05-07 14:29 48.36259 11.79322 1481 ft 12 kts 223°
2026-05-07 14:30 48.36182 11.79299 1482 ft 12 kts 172°
2026-05-07 14:30 48.36100 11.79315 1482 ft 12 kts 174°
2026-05-07 14:30 48.36017 11.79328 1476 ft 12 kts 174°
2026-05-07 14:30 48.35974 11.79335 1485 ft 0 kts 173°
2026-05-07 14:31 48.35968 11.79336 1481 ft 4 kts 173°
2026-05-07 14:31 48.35901 11.79365 1479 ft 13 kts 155°
2026-05-07 14:31 48.35804 11.79401 1485 ft 14 kts 152°
2026-05-07 14:32 48.35795 11.79538 1485 ft 14 kts 82°
2026-05-07 14:32 48.35807 11.79684 1481 ft 14 kts 83°
2026-05-07 14:32 48.35817 11.79831 1485 ft 14 kts 84°
2026-05-07 14:32 48.35827 11.79977 1485 ft 12 kts 84°
2026-05-07 14:33 48.35803 11.80057 1485 ft 8 kts 155°
2026-05-07 14:33 48.35743 11.80072 1481 ft 9 kts 173°
2026-05-07 14:33 48.35682 11.80091 1483 ft 9 kts 160°
2026-05-07 14:33 48.35640 11.80091 1482 ft 3 kts 224°
2026-05-07 14:34 48.35638 11.80055 1485 ft 4 kts 262°
2026-05-07 14:34 48.35633 11.79997 1485 ft 7 kts 263°
2026-05-07 14:34 48.35631 11.79970 1478 ft 0 kts 263°